Hourly Data Report for October 03, 2015

All times are specified in Local Standard Time (LST). Add 1 hour to adjust for Daylight Saving Time where and when it is observed.

POND INLET A
NUNAVUT

72°41'22.000" N
77°58'08.000" W
61.60 m
2403206
71095
YIO

Download Data

Hourly Data (October 2015)
Hourly Data Report for October 3, 2015
Temp Definition
°C
Dew Point Temp Definition
°C
Rel Hum Definition
%
Wind Dir Definition
10's deg

Wind Spd Definition
km/h
Visibility Definition
km
Stn Press Definition
kPa
Hmdx Definition


Wind Chill Definition


Weather Definition


TIME
00:00 Legend Double Dagger -0.5 -4.6 74 25 52 16.1 101.00   -9 LegendNANA
01:00 Legend Double Dagger -0.5 -3.7 79 25 52 16.1 101.06   -9 LegendNANA
02:00 Legend Double Dagger -0.9 -4.4 77 24 52 16.1 101.12   -10 Snow
03:00 Legend Double Dagger -1.7 -3.8 86 24 52 4.0 101.19   -11 Snow
04:00 Legend Double Dagger -1.3 -4.4 79 24 50 16.1 101.24   -10 LegendNANA
05:00 Legend Double Dagger -1.4 -4.8 78 24 46 16.1 101.26   -10 LegendNANA
06:00 Legend Double Dagger -2.7 -5.5 81 22 35 16.1 101.31   -11 LegendNANA
07:00 Legend Double Dagger -2.3 -5.4 79 22 28 16.1 101.35   -9 LegendNANA
08:00 Legend Double Dagger -2.0 -5.9 75 23 34 16.1 101.37   -10 LegendNANA
09:00 Legend Double Dagger -2.9 -5.5 82 21 26 16.1 101.41   -10 LegendNANA
10:00 Legend Double Dagger -2.1 -5.6 77 23 34 16.1 101.42   -10 LegendNANA
11:00 Legend Double Dagger -1.9 -5.1 79 23 34 16.1 101.42   -9 LegendNANA
12:00 Legend Double Dagger -1.7 -5.1 78 24 34 16.1 101.38   -9 LegendNANA
13:00 Legend Double Dagger -1.6 -4.9 78 25 32 16.1 101.39   -9 LegendNANA
14:00 Legend Double Dagger -1.5 -4.9 78 25 37 16.1 101.38   -9 Snow
15:00 Legend Double Dagger -1.5 -6.0 72 27 24 16.1 101.39   -8 LegendNANA
16:00 Legend Double Dagger -1.7 -5.7 74 27 18 16.1 101.39   -7 LegendNANA
17:00 Legend Double Dagger -1.8 -5.1 78 27 15 16.1 101.39   -7 Snow
18:00 Legend Double Dagger -1.8 -5.5 76 26 28 16.1 101.36   -9 LegendNANA
19:00 Legend Double Dagger -1.9 -5.2 78 26 30 16.1 101.34   -9 LegendNANA
20:00 Legend Double Dagger -1.9 -5.6 76 25 26 16.1 101.36   -8 LegendNANA
21:00 Legend Double Dagger -3.0 -5.7 82 21 15 16.1 101.34   -8 LegendNANA
22:00 Legend Double Dagger -1.7 -6.0 73 25 28 16.1 101.30   -8 LegendNANA
23:00 Legend Double Dagger -1.9 -5.2 79 25 32 16.1 101.27   -9 LegendNANA

Notes on Data Quality.

Legend

  • E = Estimated
  • M = Missing
  • NA = Not Available
  • ‡ = Partner data that is not subject to review by the National Climate Archives
Date modified: